Location: Columbia
(38.9520°N, 92.3340°W)
Time: 00:39:01
(UTC-05:00)

Iridium 15 - Visible Passes

Search period start: 29 June 2016 00:00
Search period end: 09 July 2016 00:00
Orbit: 776 x 779 km, 86.4° (Epoch: 28 June)

Date Brightness Start Highest point End Pass type
(mag) Time Alt. Az. Time Alt. Az. Time Alt. Az.
29 Jun 7.7 04:59:17 10° NNE 05:04:07 37° E 05:08:54 10° SSE visible
30 Jun 8.6 04:26:31 10° NNE 04:30:20 20° ENE 04:34:07 10° SE visible
01 Jul 9.1 03:55:24 10° ENE 03:56:23 10° ENE 03:57:23 10° E visible
02 Jul 6.9 04:59:04 10° N 05:04:11 53° E 05:09:16 10° SSE visible
03 Jul 8.0 04:25:58 10° NNE 04:30:28 29° E 04:34:57 10° SE visible
04 Jul 8.7 03:53:31 10° NE 03:56:38 16° ENE 03:59:44 10° ESE visible
05 Jul 6.2 04:58:57 10° N 05:04:12 79° E 05:09:25 10° S visible
06 Jul 7.3 04:25:37 10° NNE 04:30:33 41° E 04:35:28 10° SSE visible
07 Jul 8.3 03:52:43 10° NNE 03:56:48 23° ENE 04:00:52 10° SE visible
08 Jul 8.8 03:20:52 10° NE 03:22:54 12° ENE 03:24:55 10° E visible
08 Jul 6.0 04:58:58 10° N 05:04:10 72° W 05:09:21 10° S visible
